Powrót do katalogu

SPARTAN

AktywnyNaukaPO
NORAD 48964·PAYLOAD·🇧🇬 Bulgaria

Wystrzelony Jun 30, 2021 z Cape Canaveral Space Force Station

Loading…

Następne Przeloty (najbliższe 24 godziny)

TLE

ŚwieżeSource: Space-Track

Epoka: Sep 13, 2026, 12:58 UTC

1 48964U 21059CP  26256.54062044  .00482381  11813-3  56158-3 0  9995
2 48964  97.6587 108.5303 0001839 237.0489 123.0617 16.08830937291972

Śledź SPARTAN w czasie rzeczywistym z AllMySat

Download on the App Store